Location: ??????
(55.7522°N, 37.6156°E)
Time: 17:58:07
(UTC+00:00)

NOSS 3-4 (C) - Pass Details

Date: 14 June 2025
Orbit: 778 x 1433 km, 63.4° (Epoch: 09 July)

Event Time Altitude Azimuth Distance (km) Brightness Sun altitude
Rises 19:09:05 0° 224° (SW) 3,276 6.1 -5.5°
Reaches altitude 10° 19:11:23 10° 223° (SW) 2,380 5.4 -5.6°
Maximum altitude 19:16:48 79° 138° (SE) 884 3.2 -6.0°
Drops below altitude 10° 19:22:58 10° 53° (NE) 2,695 5.9 -6.5°
Sets 19:25:44 0° 52° (NE) 3,742 6.7 -6.6°
